[[{"header":{"parameterUnit":"m.s-1","parameterCategory":1,"la1":30.2991,"la2":30.254,"lo1":-89.0895,"lo2":-89.0444,"dy":0.0017,"dx":0.0017,"nx":28,"ny":28,"refTime":"2025-09-05T09:00:00:Z","depth":0,"parameterNumber":2,"parameterNumberName":"U-component_of_WINDS"},"data":[0,0,0,0,0,0,0,0,0,0,0,0,0,0,0,0,0,0,0,0,0,0,0,0,0,0,0,0,0,0,0,0,0,0,0,0,0,0,0,0,0,0,0,0,0,0,0,0,0,0,0,0,0,0,0,0,0,0,0.8458,0.8458,0,0.8424,0.8424,0.8423,0.8382,0.8381,0.838,0.838,0.8344,0.8344,0.8344,0,0,0,0,0,0,0,0,0,0,0,0,0,0.8485,0.8485,0.8458,0.8458,0.8457,0.8424,0.8424,0.8423,0.8382,0.8381,0.838,0.8379,0.8344,0.8344,0.8344,0,0,0,0,0,0,0,0,0,0,0,0,0,0.8465,0.8485,0.8458,0.8433,0.843,0.8424,0.8424,0.8423,0.8382,0.8381,0.838,0.8379,0.8345,0.8344,0.8344,0.836,0,0,0.8342,0.8342,0,0,0,0,0,0,0,0,0.8466,0.8464,0.8437,0.8434,0.8431,0.8406,0.842,0.8402,0.8382,0.84,0.838,0.8378,0.8366,0.8363,0.8359,0.8358,0.8357,0.8342,0.8342,0.8341,0.8341,0,0,0,0,0,0,0,0.8467,0.8465,0.8445,0.8436,0.8433,0.8422,0.8418,0.8417,0.8389,0.8398,0.8395,0.8392,0.8364,0.836,0.8358,0.8356,0.8342,0.8342,0.8341,0.8341,0.8364,0.8365,0,0,0,0,0,0,0.8473,0.8466,0.8446,0.8444,0.8447,0.8422,0.8418,0.8415,0.8389,0.8384,0.8393,0.839,0.8361,0.8359,0.8357,0.8372,0.8341,0.8341,0.8341,0.8363,0.8364,0.8365,0,0,0,0,0,0,0.8473,0.8471,0.8447,0.8454,0.845,0.8423,0.842,0.8415,0.8411,0.8384,0.8379,0.8394,0.836,0.8357,0.8359,0.837,0.8341,0.834,0.8362,0.8364,0.8365,0.8404,0,0,0,0,0,0,0.8474,0.8472,0.8479,0.8455,0.845,0.8451,0.8421,0.8415,0.841,0.8406,0.8384,0.8379,0.8359,0.836,0.8358,0.8369,0.834,0.8361,0.8363,0.8365,0.8401,0.8406,0.8411,0,0,0,0,0,0.8476,0.8491,0.8479,0.8477,0.8458,0.8452,0.8449,0.8426,0.8411,0.8417,0.8399,0.838,0.8369,0.836,0.8358,0.8369,0.836,0.8362,0.8364,0.8399,0.8405,0.8411,0,0,0,0,0,0,0.8518,0.8488,0.8474,0.8483,0.847,0.8445,0.8451,0.8433,0.8424,0.8421,0.8393,0.8388,0.8392,0.8381,0.8371,0.8382,0.8362,0.8363,0.8389,0.8395,0.8399,0.8401,0.834,0,0,0,0,0,0.8528,0.8526,0.85,0.851,0.8504,0.8479,0.8475,0.8458,0.8444,0.8438,0.8421,0.8408,0.8401,0.8397,0.839,0.84,0.8393,0.8406,0.8411,0.8414,0.8416,0.8417,0.8422,0.8372,0.8372,0.8372,0,0,0.8549,0.8533,0.8533,0.8518,0.8506,0.8503,0.8475,0.8474,0.8471,0.8438,0.8438,0.8425,0.8408,0.8413,0.8414,0.8403,0.8428,0.8417,0.842,0.842,0.842,0.8425,0.8429,0.8374,0.8373,0.8373,0,0,0.8586,0.8574,0.858,0.8568,0.8551,0.8533,0.8535,0.8512,0.8502,0.8501,0.8475,0.8472,0.8462,0.8449,0.8442,0.8472,0.8453,0.8471,0.8494,0.8496,0.85,0.8503,0.8512,0.8515,0.8473,0.8473,0.8473,0,0.8614,0.861,0.8585,0.8585,0.8578,0.8548,0.8553,0.8543,0.8523,0.8519,0.8507,0.8492,0.8479,0.8479,0.8486,0.8482,0.8481,0.8473,0.8502,0.8505,0.8507,0.8515,0.8519,0.8475,0.8475,0.8474,0.8474,0,0.8644,0.8642,0.8648,0.863,0.8624,0.8626,0.8601,0.8597,0.8581,0.8564,0.8563,0.8545,0.8533,0.8532,0.8516,0.8529,0.8523,0.8507,0.8486,0.8515,0.8521,0.8524,0.8478,0.8477,0.8476,0.8476,0,0,0.8707,0.8674,0.8676,0.8666,0.8644,0.864,0.8641,0.8628,0.8625,0.8612,0.861,0.8602,0.8586,0.8577,0.856,0.8562,0.8583,0.8545,0.8544,0.8551,0.8594,0.8605,0.8609,0.8571,0.8571,0.8572,0.8595,0,0.8738,0.8737,0.8714,0.8718,0.8714,0.8684,0.8684,0.867,0.8654,0.8648,0.863,0.8623,0.8605,0.8599,0.8599,0.8581,0.8591,0.8579,0.8567,0.8567,0.8571,0.8613,0.8625,0.8647,0.8598,0.8598,0.8598,0,0.8774,0.8763,0.8767,0.8742,0.8739,0.874,0.8725,0.8719,0.8702,0.869,0.868,0.8659,0.8656,0.8637,0.8632,0.8623,0.8617,0.8607,0.8607,0.8604,0.8583,0.8609,0.8654,0.8657,0.8603,0.8602,0.8602,0,0.8816,0.8802,0.8802,0.8795,0.8766,0.8767,0.8755,0.8736,0.8729,0.8716,0.8711,0.8698,0.8691,0.8681,0.8657,0.8646,0.8653,0.8633,0.8642,0.8642,0.8643,0.8643,0.8687,0.8643,0.8643,0.8643,0.8643,0,0.8852,0.8855,0.882,0.882,0.8822,0.8795,0.8797,0.8783,0.8766,0.8761,0.8736,0.8732,0.8701,0.8693,0.8675,0.8671,0.8669,0.8658,0.8653,0.8659,0.866,0.8654,0.8651,0.8643,0.8643,0.8643,0.8643,0,0.8899,0.8876,0.8874,0.8847,0.884,0.8842,0.8818,0.8816,0.8799,0.8793,0.879,0.8763,0.8752,0.8727,0.871,0.8697,0.8698,0.869,0.8704,0.87,0.871,0.8709,0.8749,0.8752,0.8708,0.8709,0.8709,0,0.8923,0.8924,0.8897,0.8892,0.8881,0.8874,0.8866,0.8839,0.8832,0.8811,0.8811,0.8798,0.8786,0.877,0.8748,0.8734,0.8724,0.8739,0.8722,0.8728,0.8722,0.8721,0.872,0.8743,0.8743,0.8744,0.8744,0,0.8966,0.8954,0.8945,0.893,0.8922,0.891,0.8896,0.8893,0.8862,0.8856,0.8844,0.8835,0.8817,0.8804,0.8786,0.8773,0.8753,0.875,0.8751,0.8757,0.8764,0.8758,0.8712,0.8749,0.8748,0.8748,0.8748,0.8748,0.9001,0.9,0.898,0.8969,0.8956,0.8943,0.8939,0.892,0.8911,0.8893,0.8878,0.8868,0.8848,0.8822,0.881,0.88,0.879,0.8792,0.8792,0.8793,0.8795,0.8767,0.8797,0.8797,0.8797,0.8797,0.8797,0,0.9041,0.9026,0.9017,0.8998,0.8989,0.8971,0.8955,0.8948,0.8939,0.8922,0.8911,0.8896,0.8883,0.8859,0.8844,0.884,0.8831,0.8837,0.8836,0.8833,0.8806,0.8805,0.8845,0.8845,0.8845,0.8845,0.8845,0.8845,0.9061,0.9057,0.9043,0.9032,0.9017,0.9006,0.8998,0.8985,0.8971,0.8957,0.8945,0.893,0.891,0.8892,0.8878,0.8871,0.8866,0.8875,0.8865,0.884,0.8835,0.8831,0.883,0.8874,0.8874,0.8893,0.8893,0.8893]},{"header":{"parameterUnit":"m.s-1","parameterCategory":1,"la1":30.2991,"la2":30.254,"lo1":-89.0895,"lo2":-89.0444,"dy":0.0017,"dx":0.0017,"nx":28,"ny":28,"refTime":"2025-09-05T09:00:00:Z","depth":0,"parameterNumber":3,"parameterNumberName":"V-component_of_WINDS"},"data":[0,0,0,0,0,0,0,0,0,0,0,0,0,0,0,0,0,0,0,0,0,0,0,0,0,0,0,0,0,0,0,0,0,0,0,0,0,0,0,0,0,0,0,0,0,0,0,0,0,0,0,0,0,0,0,0,0,0,2.3667,2.3667,0,2.3682,2.3682,2.3682,2.363,2.3628,2.3627,2.3625,2.3639,2.3641,2.3643,0,0,0,0,0,0,0,0,0,0,0,0,0,2.359,2.3592,2.3666,2.3667,2.3667,2.3681,2.3682,2.3682,2.363,2.3628,2.3626,2.3624,2.3639,2.3641,2.3643,0,0,0,0,0,0,0,0,0,0,0,0,0,2.3616,2.3592,2.3666,2.3643,2.3641,2.3681,2.3682,2.3682,2.363,2.3628,2.3626,2.3623,2.3638,2.3641,2.3643,2.3707,0,0,2.3652,2.3653,0,0,0,0,0,0,0,0,2.3615,2.3619,2.3646,2.3644,2.3642,2.3651,2.366,2.369,2.3631,2.3634,2.3625,2.3622,2.3645,2.3647,2.3655,2.3708,2.3709,2.3652,2.3654,2.3655,2.3656,0,0,0,0,0,0,0,2.3613,2.3618,2.3672,2.3646,2.3644,2.363,2.3632,2.3665,2.3653,2.3634,2.363,2.3633,2.3644,2.3653,2.3655,2.3709,2.3652,2.3654,2.3656,2.3657,2.3812,2.3814,0,0,0,0,0,0,2.3615,2.3617,2.3672,2.3673,2.3622,2.3634,2.3635,2.3651,2.3652,2.365,2.3635,2.363,2.3649,2.3652,2.3655,2.3728,2.3655,2.3657,2.3659,2.3809,2.3812,2.3815,0,0,0,0,0,0,2.3613,2.362,2.3671,2.3644,2.3649,2.3638,2.3656,2.3652,2.3661,2.3653,2.365,2.3646,2.3647,2.3651,2.3694,2.3728,2.3659,2.3661,2.3807,2.381,2.3814,2.3875,0,0,0,0,0,0,2.3611,2.362,2.3645,2.3645,2.3651,2.3711,2.3658,2.3654,2.3666,2.366,2.3663,2.3661,2.3646,2.369,2.3697,2.373,2.3663,2.3803,2.3808,2.3813,2.387,2.3881,2.389,0,0,0,0,0,2.3609,2.3662,2.3646,2.3653,2.3682,2.3713,2.3716,2.3698,2.3669,2.3693,2.3688,2.3661,2.3724,2.3695,2.3702,2.3737,2.3801,2.3807,2.3812,2.3866,2.3879,2.3889,0,0,0,0,0,0,2.3666,2.3662,2.3644,2.3699,2.3707,2.3704,2.3734,2.3713,2.3728,2.3722,2.3699,2.37,2.3746,2.3746,2.3714,2.3797,2.3757,2.3764,2.3795,2.3808,2.3817,2.3815,2.3666,0,0,0,0,0,2.3685,2.3711,2.3706,2.3755,2.3759,2.3746,2.3759,2.3744,2.3751,2.3754,2.3751,2.3759,2.3779,2.3794,2.3813,2.387,2.3869,2.3898,2.3907,2.3915,2.3921,2.3949,2.3961,2.3833,2.3833,2.3833,0,0,2.3725,2.3726,2.3744,2.3766,2.377,2.3797,2.3749,2.378,2.3799,2.3758,2.3798,2.3797,2.3803,2.3853,2.3874,2.3854,2.3956,2.3922,2.3929,2.393,2.3956,2.3968,2.3979,2.3837,2.3836,2.3836,0,0,2.381,2.3815,2.3854,2.3859,2.3866,2.3856,2.3866,2.3866,2.3864,2.3903,2.3873,2.3895,2.3932,2.3937,2.3944,2.403,2.4005,2.4037,2.4087,2.4114,2.4124,2.4133,2.4161,2.4172,2.4043,2.4043,2.4043,0,2.3859,2.3898,2.3878,2.3909,2.3919,2.3884,2.3923,2.3929,2.3941,2.3948,2.3926,2.397,2.3972,2.4021,2.4042,2.405,2.4059,2.4035,2.4124,2.4133,2.4141,2.4167,2.4178,2.4047,2.4046,2.4046,2.4046,0,2.3955,2.3983,2.4014,2.4026,2.404,2.4075,2.4059,2.4075,2.4059,2.4052,2.4091,2.4092,2.411,2.4121,2.4106,2.4167,2.4154,2.4129,2.4087,2.4157,2.4181,2.4191,2.4052,2.4051,2.405,2.4049,0,0,2.4077,2.4077,2.4088,2.4092,2.4096,2.4117,2.415,2.4167,2.418,2.419,2.4215,2.4247,2.4223,2.4231,2.4216,2.4241,2.4305,2.4212,2.4211,2.4227,2.437,2.4388,2.44,2.4289,2.4291,2.4293,2.4369,0,2.4159,2.4215,2.4197,2.4254,2.4277,2.4244,2.4272,2.4277,2.4271,2.429,2.4283,2.4305,2.4272,2.4276,2.4299,2.4293,2.4333,2.4287,2.4312,2.4313,2.4309,2.4413,2.4433,2.4505,2.4379,2.438,2.4382,0,2.4262,2.4274,2.4333,2.4331,2.434,2.4366,2.4379,2.4398,2.4402,2.4396,2.4405,2.4384,2.4415,2.4375,2.4416,2.4385,2.4394,2.4392,2.4395,2.4395,2.435,2.4414,2.4527,2.4537,2.4397,2.4396,2.4394,0,2.4341,2.4374,2.4412,2.4417,2.4416,2.4435,2.4435,2.4437,2.4448,2.4459,2.4465,2.448,2.4488,2.45,2.4483,2.4456,2.4526,2.4486,2.452,2.4521,2.4535,2.4534,2.4649,2.4545,2.4545,2.4545,2.4544,0,2.4433,2.447,2.4447,2.4471,2.451,2.4489,2.4529,2.4525,2.4527,2.4548,2.4521,2.4542,2.4519,2.4538,2.4525,2.456,2.4564,2.4559,2.4555,2.456,2.4561,2.4564,2.4558,2.4547,2.4547,2.4546,2.4546,0,2.4529,2.4515,2.4555,2.455,2.455,2.4579,2.4574,2.4595,2.4587,2.4614,2.4619,2.4606,2.4626,2.4611,2.4631,2.4623,2.4668,2.4658,2.4666,2.4662,2.4697,2.4693,2.4817,2.4831,2.472,2.4721,2.4722,0,2.4587,2.4614,2.4612,2.4624,2.4626,2.4647,2.4657,2.4637,2.4648,2.4654,2.4674,2.4692,2.4704,2.4737,2.4729,2.4744,2.4733,2.4775,2.4735,2.4738,2.473,2.4728,2.473,2.4783,2.4784,2.4785,2.4786,0,2.4692,2.4683,2.4699,2.4712,2.4725,2.4734,2.4741,2.4753,2.4732,2.4747,2.4766,2.4776,2.4796,2.4813,2.4824,2.4824,2.4801,2.4799,2.4807,2.4812,2.4815,2.4811,2.4686,2.4796,2.4795,2.4794,2.4793,2.4793,2.4769,2.479,2.4791,2.4809,2.4812,2.4819,2.4838,2.4831,2.4847,2.4861,2.4848,2.4871,2.4873,2.4886,2.4889,2.4906,2.4888,2.4901,2.4904,2.4907,2.4911,2.4814,2.4908,2.4908,2.4908,2.4908,2.4907,0,2.4869,2.4868,2.4885,2.4895,2.4908,2.4886,2.4892,2.4905,2.4925,2.4929,2.4942,2.4963,2.498,2.4972,2.4986,2.5001,2.4991,2.5005,2.5003,2.5003,2.4927,2.4917,2.5013,2.5013,2.5013,2.5013,2.5013,2.5013,2.4923,2.4957,2.4949,2.4984,2.4982,2.5004,2.5009,2.5015,2.5017,2.5042,2.5055,2.5051,2.5049,2.5063,2.5076,2.5073,2.5079,2.5097,2.509,2.5019,2.5008,2.4998,2.4989,2.5098,2.5099,2.5164,2.5165,2.5165]}]]